Lexington Weather

Lexington, Massachusetts, USA

39°F
1/28/2023 9:47pm 
  • Lexington Conditions: Clear
  • Temperature: 38.7°F / 3.7°CColder 0.1°F than last hour.
  • Dew Point: 27.9°FIncreased 0.9°Fsince last hour.
  • Relative Humidity: 65%Increased 3.0% since last hour.
  • Wind: Calm, 10-min avg: Calm, gust: None
  • Barometer: 30.25 in Steady
  • Visibility: 10 miles
  • Rain Today: 0.00 in
  •   

Regional Weather Roundup
for Boston, MA

        
000
ASUS41 KBOX 240510
RWRBOX

REGIONAL WEATHER ROUNDUP
NATIONAL WEATHER SERVICE BOSTON/NORTON MA
1200 AM EST TUE JAN 24 2023

NOTE:  "FAIR" INDICATES FEW OR NO CLOUDS BELOW 12,000 FEET WITH NO 
SIGNIFICANT WEATHER AND/OR OBSTRUCTIONS TO VISIBILITY.

MAZALL-240600-
EASTERN MASSACHUSETTS
  
CITY           SKY/WX    TMP DP  RH WIND       PRES   REMARKS
BOSTON         MOCLDY    31  25  78 W17G24    29.78R WCI  19          
BEVERLY        CLOUDY    29  24  82 W12G23    29.75R WCI  19          
LAWRENCE       CLOUDY    30  24  78 NW9G17    29.78R WCI  22          
BEDFORD        CLOUDY    31  25  78 W13       29.79R WCI  21          
NORWOOD        CLOUDY    32  25  75 W13G18    29.80R WCI  22          
MARSHFIELD     CLOUDY    30  27  86 W8G16     29.77R WCI  23          
PLYMOUTH       MOCLDY    31  28  89 W14       29.77R WCI  21          
TAUNTON          N/A    N/A N/A N/A MISG      29.80R                  
NEW BEDFORD    PTCLDY    32  28  85 NW9       29.79R WCI  24          
$$

MAZALL-240600-
CAPE COD AND THE ISLANDS
  
CITY           SKY/WX    TMP DP  RH WIND       PRES   REMARKS
FALMOUTH       CLOUDY    32  30  93 NW13G21   29.77R WCI  22          
HYANNIS        CLOUDY    32  29  88 NW13G25   29.73R WCI  22          
CHATHAM        CLOUDY    35  30  82 NW10G24   29.74R WCI  27          
PROVINCETOWN   MOCLDY    34  28  79 NW28G36   29.75R WCI  21          
NANTUCKET      CLOUDY    35  29  78 NW18G30   29.76R WCI  24          
MARTHAS VNYRD  CLOUDY    34  27  75 NW17G28   29.79R WCI  23          
$$
 
MAZALL-240600-
CENTRAL AND WESTERN MASSACHUSETTS
  
CITY           SKY/WX    TMP DP  RH WIND       PRES   REMARKS
WORCESTER      CLOUDY    28  23  81 W17G29    29.76R WCI  16          
FITCHBURG      CLOUDY    30  22  72 NW10      29.80R WCI  21          
ORANGE         CLOUDY    29  23  78 W6        29.83R WCI  23          
SPRINGFIELD    CLOUDY    30  23  74 NW14      29.84R WCI  20          
WESTFIELD      CLOUDY    31  23  72 NW8       29.86R WCI  23          
NORTH ADAMS    CLOUDY    29  23  78 W15       29.84S WCI  18          
PITTSFIELD     CLOUDY    27  22  81 W13G23    29.82R WCI  16          
$$
 
RIZALL-240600-
RHODE ISLAND
  
CITY           SKY/WX    TMP DP  RH WIND       PRES   REMARKS
PROVIDENCE     MOCLDY    31  25  78 W8G21     29.82R WCI  23          
NEWPORT        NOT AVBL                                               
BLOCK ISLAND   CLOUDY    33  26  75 NW14G28   29.85R WCI  23          
SMITHFIELD     CLOUDY    29  27  92 NW10      29.80R WCI  20          
WESTERLY       CLOUDY    33  25  72 NW14G22   29.85R WCI  23          
$$
 
CTZALL-240600-
CONNECTICUT
  
CITY           SKY/WX    TMP DP  RH WIND       PRES   REMARKS
BRADLEY INTL   CLOUDY    33  23  66 NW14G20   29.88R WCI  23          
HARTFORD       CLOUDY    35  24  64 NW13G20   29.90R WCI  26          
BRIDGEPORT     CLOUDY    35  27  72 W9        29.92R WCI  28          
DANBURY        CLOUDY    34  24  67 W6        29.91R WCI  29          
GROTON         CLOUDY    35  25  66 NW20G29   29.86R WCI  24          
NEW HAVEN      CLOUDY    37  28  70 NW7       29.91R WCI  32          
CHESTER        CLOUDY    32  27  80 W17G25    29.87R WCI  21          
MERIDEN        CLOUDY    34  23  64 NW6G17    29.91R WCI  29          
WILLIMANTIC    CLOUDY    31  24  75 NW14G20   29.86R WCI  21          
OXFORD         CLOUDY    30  26  85 W8        29.88R WCI  22          
$$

MEZ002-015-021-024-NHZ003-005-008-011-012-014-VTZ005-008-240600-
NORTHERN NEW ENGLAND
  
CITY           SKY/WX    TMP DP  RH WIND       PRES   REMARKS
PORTLAND ME    CLEAR     26  21  81 W10       29.69R WCI  16          
BANGOR ME      MOCLDY    25  19  78 NW15      29.61R WCI  13          
CONCORD NH     CLOUDY    29  22  75 NW16G26   29.78R WCI  17          
MANCHESTER NH  CLOUDY    31  24  75 NW14G21   29.77R WCI  21          
NASHUA NH      MOCLDY    29  28  96 NW12      29.80R WCI  19          
PORTSMOUTH NH  PTCLDY    28  23  80 W14       29.72R WCI  17          
JAFFREY NH     CLOUDY    28  22  78 W7        29.77R WCI  21          
KEENE NH       CLOUDY    29  24  82 W5        29.83R WCI  24          
BURLINGTON VT  CLOUDY    31  21  66 NW7       29.83R WCI  24          
MT. WASHINGTON BLWGSNOW   5   5 100 W62         N/A  VSB 0   WCI -26  
$$

NYZ052-076-240600-
EASTERN NEW YORK
  
CITY           SKY/WX    TMP DP  RH WIND       PRES   REMARKS
ALBANY         CLOUDY    32  24  72 W7        29.89S WCI  26          
NEW YORK CITY  CLOUDY    36  23  59 NW16G29   29.97R WCI  26          
$$
 
ANZALL-240600-
MARINE OBSERVATIONS
  
STATION/POSITION TIME  TEMP    WIND        PRES    VSBY  WAVE
                       AIR SEA DIR/SP/G                  HT/PER
                 (UTC) (F)     (DEG/KT/KT) (MB)    (MI)  (FT/S)
BOSTON BUOY      0450      42              1008.2R         8/ 9
BUZZARDS BAY     0400   34     320/ 33/ 36 1008.6R
NANTUCKET SOUND  0450   36 42  290/ 23/ 31 1007.6R         3/ 3
MASS BAY-STELLWA 0304   34 42  310/ 21/ 27 1003.6R  1 7/8  8/ 8
ISLE OF SHOALS   0400   31     300/ 20/ 22 1005.0R
S OF BLOCK IS    0456      44                N/A          10/12
$$

......................KEY.........................
  SKY/WX - SKY CONDITION/PRESENT WEATHER
  TMP    - TEMPERATURE IN FAHRENHEIT
  DWPT   - DEWPOINT IN FAHRENHEIT
  RH     - RELATIVE HUMIDITY IN PERCENT
  WIND   - DIRECTION AND SPEED IN MPH
  PRES   - MEAN SEA LEVEL PRESSURE IN INCHES OF HG
  WCI    - WIND CHILL INDEX
  VSB    - VISIBILITY IN MILES
  HX     - HEAT INDEX
  TC     - TEMPERATURE IN CELSIUS
  VRB    - VARIABLE WIND DIRECTION
  N/A    - NOT AVAILABLE
  
      

Other recent Regional Weather Roundups

Sat Jan 28, 9:10pm EST

Sat Jan 28, 8:10pm EST

Sat Jan 28, 7:10pm EST

Sat Jan 28, 6:10pm EST

Sat Jan 28, 5:10pm EST

Sat Jan 28, 4:10pm EST

Sat Jan 28, 3:10pm EST

Sat Jan 28, 2:10pm EST

Sat Jan 28, 1:10pm EST

Sat Jan 28, 12:10pm EST

Sat Jan 28, 11:10am EST

Sat Jan 28, 10:10am EST

Sat Jan 28, 9:10am EST

Sat Jan 28, 8:10am EST

Sat Jan 28, 7:10am EST

Sat Jan 28, 6:10am EST

Sat Jan 28, 5:10am EST

Sat Jan 28, 4:10am EST

Sat Jan 28, 3:10am EST

Sat Jan 28, 2:10am EST

Sat Jan 28, 1:10am EST

Sat Jan 28, 12:10am EST

Fri Jan 27, 11:10pm EST

Fri Jan 27, 10:10pm EST

Fri Jan 27, 9:10pm EST

Fri Jan 27, 8:10pm EST

Fri Jan 27, 7:10pm EST

Fri Jan 27, 6:10pm EST

Fri Jan 27, 5:10pm EST

Fri Jan 27, 4:10pm EST

Fri Jan 27, 3:10pm EST

Fri Jan 27, 2:10pm EST

Fri Jan 27, 1:10pm EST

Fri Jan 27, 12:10pm EST

Fri Jan 27, 11:10am EST

Fri Jan 27, 10:10am EST

Fri Jan 27, 9:10am EST

Fri Jan 27, 8:10am EST

Fri Jan 27, 7:10am EST

Fri Jan 27, 6:10am EST

Fri Jan 27, 5:10am EST

Fri Jan 27, 4:10am EST

Fri Jan 27, 3:10am EST

Fri Jan 27, 2:10am EST

Fri Jan 27, 1:10am EST

Fri Jan 27, 12:10am EST

Thu Jan 26, 11:10pm EST

Thu Jan 26, 10:10pm EST

Thu Jan 26, 9:10pm EST

Thu Jan 26, 8:10pm EST

Thu Jan 26, 7:10pm EST

Thu Jan 26, 6:10pm EST

Thu Jan 26, 5:10pm EST

Thu Jan 26, 4:10pm EST

Thu Jan 26, 3:10pm EST

Thu Jan 26, 2:10pm EST

Thu Jan 26, 1:10pm EST

Thu Jan 26, 12:10pm EST

Thu Jan 26, 11:10am EST

Thu Jan 26, 10:10am EST

Thu Jan 26, 9:10am EST

Thu Jan 26, 8:10am EST

Thu Jan 26, 7:10am EST

Thu Jan 26, 6:10am EST

Thu Jan 26, 5:10am EST

Thu Jan 26, 4:10am EST

Thu Jan 26, 3:10am EST

Thu Jan 26, 2:10am EST

Thu Jan 26, 1:10am EST

Thu Jan 26, 12:10am EST

Wed Jan 25, 11:10pm EST

Wed Jan 25, 10:10pm EST

Wed Jan 25, 9:10pm EST

Wed Jan 25, 8:10pm EST

Wed Jan 25, 7:10pm EST

Wed Jan 25, 6:10pm EST

Wed Jan 25, 5:10pm EST

Wed Jan 25, 4:10pm EST

Wed Jan 25, 3:10pm EST

Wed Jan 25, 2:10pm EST

Wed Jan 25, 1:10pm EST

Wed Jan 25, 12:10pm EST

Wed Jan 25, 11:10am EST

Wed Jan 25, 10:10am EST

Wed Jan 25, 9:10am EST

Wed Jan 25, 8:10am EST

Wed Jan 25, 7:10am EST

Wed Jan 25, 6:10am EST

Wed Jan 25, 5:10am EST

Wed Jan 25, 4:10am EST

Wed Jan 25, 3:10am EST

Wed Jan 25, 2:10am EST

Wed Jan 25, 1:10am EST

Wed Jan 25, 12:10am EST

Tue Jan 24, 11:10pm EST

Tue Jan 24, 10:10pm EST

Tue Jan 24, 9:10pm EST

Tue Jan 24, 8:10pm EST

Tue Jan 24, 7:10pm EST

Tue Jan 24, 6:10pm EST

Tue Jan 24, 5:10pm EST

Tue Jan 24, 4:10pm EST

Tue Jan 24, 3:10pm EST

Tue Jan 24, 2:10pm EST

Tue Jan 24, 1:10pm EST

Tue Jan 24, 12:10pm EST

Tue Jan 24, 11:10am EST

Tue Jan 24, 10:10am EST

Tue Jan 24, 9:10am EST

Tue Jan 24, 8:10am EST

Tue Jan 24, 7:10am EST

Tue Jan 24, 6:10am EST

Tue Jan 24, 5:10am EST

Tue Jan 24, 4:10am EST

Tue Jan 24, 3:10am EST

Tue Jan 24, 2:10am EST

Tue Jan 24, 1:10am EST

Mon Jan 23, 11:10pm EST

Mon Jan 23, 10:10pm EST

Mon Jan 23, 9:10pm EST

Mon Jan 23, 8:10pm EST

Mon Jan 23, 7:10pm EST

Mon Jan 23, 6:10pm EST

Mon Jan 23, 5:10pm EST

Mon Jan 23, 4:10pm EST

Mon Jan 23, 3:10pm EST

Mon Jan 23, 2:10pm EST

Mon Jan 23, 1:10pm EST

Mon Jan 23, 12:10pm EST

Mon Jan 23, 11:10am EST

Mon Jan 23, 10:10am EST

Mon Jan 23, 9:10am EST

Mon Jan 23, 8:10am EST

Mon Jan 23, 7:10am EST

Mon Jan 23, 6:10am EST

Mon Jan 23, 5:10am EST

Mon Jan 23, 4:10am EST

Mon Jan 23, 3:10am EST

Mon Jan 23, 2:10am EST

Mon Jan 23, 1:10am EST

Mon Jan 23, 12:10am EST

Sun Jan 22, 11:10pm EST

Sun Jan 22, 10:10pm EST

Sun Jan 22, 9:10pm EST

Sun Jan 22, 8:10pm EST

Sun Jan 22, 7:10pm EST

Sun Jan 22, 6:10pm EST

Sun Jan 22, 5:10pm EST

Sun Jan 22, 4:10pm EST

Sun Jan 22, 3:10pm EST

Sun Jan 22, 2:10pm EST

Sun Jan 22, 1:10pm EST

Sun Jan 22, 12:10pm EST

Sun Jan 22, 11:10am EST

Sun Jan 22, 10:10am EST

Sun Jan 22, 9:10am EST

Sun Jan 22, 8:10am EST

Sun Jan 22, 7:10am EST

Sun Jan 22, 6:10am EST

Sun Jan 22, 5:10am EST

Sun Jan 22, 4:10am EST

Sun Jan 22, 3:10am EST

Sun Jan 22, 2:10am EST

Sun Jan 22, 1:10am EST

Sun Jan 22, 12:10am EST

Sat Jan 21, 11:10pm EST

Sat Jan 21, 10:10pm EST